Change the Weather History Date:

Tuesday, December 23, 2014

  Actual Average Record
Temperature  
Mean Temperature 28 °F -  
Max Temperature 31 °F 27 °F 48 °F (2004)
Min Temperature 24 °F 12 °F 8 °F (1997)
Degree Days  
Heating Degree Days 38    
Moisture  
Dew Point 23 °F    
Average Humidity 83    
Maximum Humidity 93    
Minimum Humidity 60    
Precipitation  
Precipitation 0.00 in 0.15 in - ()
Sea Level Pressure  
Sea Level Pressure 30.47 in    
Wind  
Wind Speed 3 mph ()    
Max Wind Speed 8 mph    
Max Gust Speed -    
Visibility 14.6 miles    
Events Snow    
Averages and records for this station are not official NWS values.
T = Trace of Precipitation, MM = Missing Value Source: Averaged Metar Reports

Daily Weather History Graph

Daily Weather History Graph

Search for Another Location

Airport or City:

Trip Planner

Search our weather history database for the weather conditions in past years. The results will help you decide how hot, cold, wet, or windy it might be!

Date:

Astronomy

Dec. 23, 2014 Rise Set
Actual Time 7:53 AM AST 4:29 PM AST
Civil Twilight 7:18 AM AST 5:04 PM AST
Nautical Twilight 6:40 AM AST 5:42 PM AST
Astronomical Twilight 6:03 AM AST 6:19 PM AST
Moon 8:48 AM AST (12/23) 6:46 PM AST (12/23)
Length of Visible Light 9h 46m
Length of Day
8h 36m
Waxing Crescent, 3% of the Moon is Illuminated
Dec 23
Waxing Crescent
Dec 28
First Quarter
Jan 5
Full
Jan 13
Last Quarter
Jan 20
New

Hourly Weather History & Observations

Time (AST) Temp. Windchill Dew Point Humidity Pressure Visibility Wind Dir Wind Speed Gust Speed Precip Events Conditions
12:00 AM 24.8 °F 19.1 °F 21.2 °F 86% 30.50 in 15.0 mi NNE 4.6 mph - N/A Snow Light Snow Grains
1:00 AM 26.6 °F 22.6 °F 21.2 °F 80% 30.49 in 15.0 mi ENE 3.5 mph - N/A Snow Light Snow Grains
2:00 AM 27 °F - 22 °F 72% 30.50 in 15 mi East 2.3 mph - - Snow Snow Grains
2:00 AM 26.6 °F - 21.2 °F 80% 30.50 in 15.0 mi Calm Calm - N/A   Overcast
3:00 AM 26.6 °F 22.6 °F 23.0 °F 86% 30.51 in 15.0 mi NE 3.5 mph - N/A Snow Light Snow Grains
4:00 AM 26.6 °F - 23.0 °F 86% 30.50 in 15.0 mi Calm Calm - N/A Snow Light Snow Grains
5:00 AM 26.6 °F 21.2 °F 23.0 °F 86% 30.48 in 15.0 mi NNE 4.6 mph - N/A Snow Light Snow Grains
6:00 AM 26.6 °F - 23.0 °F 86% 30.48 in 15.0 mi Variable 2.3 mph - N/A Snow Light Snow Grains
7:00 AM 26.6 °F - 24.8 °F 93% 30.49 in 15.0 mi North 2.3 mph - N/A Snow Light Snow Grains
8:00 AM 26 °F - 24 °F 89% 30.51 in 15 mi North 2.3 mph - - Snow Light Snow
8:00 AM 26.6 °F - 24.8 °F 93% 30.51 in 15.0 mi Variable 2.3 mph - N/A Snow Light Freezing Drizzle
9:00 AM 26.6 °F 21.2 °F 24.8 °F 93% 30.50 in 15.0 mi SE 4.6 mph - N/A   Mostly Cloudy
9:15 AM 26.6 °F 18.2 °F 23.0 °F 86% 30.50 in 15.0 mi SE 8.1 mph - N/A   Mostly Cloudy
10:00 AM 28.4 °F 22.2 °F 23.0 °F 80% 30.49 in 10.0 mi SE 5.8 mph - N/A   Mostly Cloudy
11:00 AM 28.4 °F 22.2 °F 23.0 °F 80% 30.47 in 12.0 mi SE 5.8 mph - N/A   Mostly Cloudy
12:00 PM 28.4 °F 24.6 °F 23.0 °F 80% 30.46 in 12.0 mi South 3.5 mph - N/A   Mostly Cloudy
1:00 PM 30.2 °F - 23.0 °F 75% 30.45 in 15.0 mi Variable 2.3 mph - N/A   Mostly Cloudy
2:00 PM 30 °F - 22 °F 60% 30.44 in 15 mi North 1.2 mph - -   Partly Cloudy
2:00 PM 30.2 °F - 21.2 °F 69% 30.44 in 15.0 mi Calm Calm - N/A   Mostly Cloudy
3:00 PM 30.2 °F - 23.0 °F 75% 30.44 in 15.0 mi ESE 2.3 mph - N/A   Overcast
4:00 PM 30.2 °F - 23.0 °F 75% 30.44 in 15.0 mi South 2.3 mph - N/A   Overcast
5:00 PM 30.2 °F - 24.8 °F 80% 30.44 in 15.0 mi South 2.3 mph - N/A   Mostly Cloudy
6:00 PM 28.4 °F - 24.8 °F 86% 30.43 in 15.0 mi NE 2.3 mph - N/A   Mostly Cloudy
7:00 PM 28.4 °F 23.3 °F 24.8 °F 86% 30.43 in 15.0 mi NNE 4.6 mph - N/A   Overcast
8:00 PM 25 °F - 23 °F 90% 30.44 in 15 mi NNE 4.6 mph - -   Mostly Cloudy
8:00 PM 24.8 °F 19.1 °F 23.0 °F 93% 30.43 in 15.0 mi NNE 4.6 mph - N/A   Mostly Cloudy
9:00 PM 28.4 °F 22.2 °F 24.8 °F 86% 30.43 in 15.0 mi ENE 5.8 mph - N/A   Overcast
10:00 PM 28.4 °F 21.2 °F 24.8 °F 86% 30.41 in 15.0 mi ENE 6.9 mph - N/A   Overcast
11:00 PM 28.4 °F 22.2 °F 24.8 °F 86% 30.42 in 15.0 mi East 5.8 mph - N/A   Overcast